Simultaneous Nadir Overpasses (SNOs) Predictions

Prediction of SNOs between AQUA and NPP Satellite Orbit:

Table of predicted SNOs for the next 14.0 days since TLE Epoch: 10/19/2024
Index Date (AQUA) Time (AQUA) Lat,Lon (AQUA) SZA (AQUA ) Date (NPP) Time (NPP) Lat,Lon (NPP) SZA (NPP ) Distance(km) Time Diff (sec)
1 10/21/2024 10:31:42 81.30, -50.48 97.67 10/21/2024 10:31:46 81.30, -50.46 97.67 0.30 4
2 10/23/2024 21:44:07 81.30, 141.52 98.50 10/23/2024 21:44:13 81.30, 141.34 98.52 3.04 6
3 10/26/2024 08:07:08 -81.30, 165.82 80.69 10/26/2024 08:05:55 -81.29, 165.65 80.63 2.88 73
4 10/26/2024 08:56:28 81.29, -26.70 99.34 10/26/2024 08:56:39 81.30, -26.66 99.33 0.91 11
5 10/28/2024 19:19:24 -81.30, -2.16 79.89 10/28/2024 19:18:20 -81.30, -2.13 79.86 0.83 64
6 10/28/2024 20:08:44 81.29, 165.27 100.15 10/28/2024 20:09:05 81.30, 165.16 100.16 1.84 21
7 10/31/2024 06:31:35 -81.29,-170.35 79.09 10/31/2024 06:30:45 -81.29,-170.48 79.04 2.25 50



Historial Predications of SNOs between AQUA and NPP
